Regional Weather Roundup
Issued by NWS Grand Forks, ND

Home | Current Version | Previous Version | Graphics & Text | Print | Product List | Glossary On
Versions: 1 2 3 4 5 6 7 8 9 10 11 12 13 14 15 16 17 18 19 20 21 22 23 24 25 26 27 28 29 30 31 32 33 34 35 36 37 38 39 40 41 42 43 44 45 46 47 48 49 50
000
ASUS43 KFGF 291131
RWRFGF
PRAIRIE TO PINES  WEATHER ROUNDUP
NATIONAL WEATHER SERVICE EASTERN NORTH DAKOTA/GRAND FORKS ND
600 AM CDT FRI JUL 29 2016

 **SATELLITE DATA USED TO AUGMENT SKY COVER AT AUTOMATED STATIONS**
 *****  WEATHER ACROSS EASTERN NORTH DAKOTA  *****

CITY           SKY/WX    TMP DP  RH WIND       PRES   REMARKS
GRAND FORKS    PTCLDY    51  49  92 W6        30.08F
GRAND FRKS AFB CLEAR     53  51  96 NW6       30.09S
GRAND FRKS NWS   N/A     52 N/A N/A NW2         N/A
DEVILS LAKE    PTCLDY    56  54  93 CALM      30.11F
FARGO          MOCLDY    59  55  87 CALM      30.08S
WAHPETON ARPT  MOSUNNY   57  55  94 SE5       30.08S
$$

 ***** WEATHER ACROSS CENTRAL AND WESTERN NORTH DAKOTA  *****

CITY           SKY/WX    TMP DP  RH WIND       PRES   REMARKS
BISMARCK       CLOUDY    63  61  93 CALM      30.09F
MINOT          MOCLDY    56  52  86 CALM      30.10S
JAMESTOWN      CLOUDY    61  58  90 CALM      30.10S
MINOT AFB      PTCLDY    49  47  92 SW5       30.09S
GARRISON         N/A     59  59 100 CALM      30.09F
WILLISTON      CLEAR     51  49  92 NE3       30.10S
DICKINSON      MOCLDY    53  53 100 CALM      30.10S FOG
HETTINGER      FOG       52  50  93 W3        30.13S VSB 1/4
$$

 *****  OTHER AIRPORT OBSERVATIONS IN OUR AREA  *****

CITY           SKY/WX    TMP DP  RH WIND       PRES   REMARKS
WALHALLA       FAIR      50  46  87 CALM      30.10S
GRAFTON AIRPOR FAIR      55  55 100 W6        30.10S
VALLEY CITY AR PTSUNNY   59  59 100 NE3       30.12R
CANDO          FOG       48  48 100 N3        30.13S VSB<1/4
CAVALIER APRT  FAIR      50  50 100 W3        30.09S
GWINNER        FAIR      55  55 100 N5        30.10R
SHEYENNE NWR     N/A     55  53  94 CALM      29.95S
ROLLA          FAIR      52  52 100 SW6       30.13S
 ***** THE ABOVE OBSERVATIONS ARE NON NWS ARE NOT QUALITY
       CONTROLLED AND MAY MIS-REPORT RAIN FOR SNOW...
$$

  *****  WEATHER ACROSS NORTHERN MINNESOTA  *****

CITY           SKY/WX    TMP DP  RH WIND       PRES   REMARKS
FLAG ISLAND    CLEAR     64  59  82 N3        30.09S
WARROAD        CLEAR     52  48  87 CALM      30.10S
ROSEAU         CLEAR     52  46  82 CALM      30.10S
HALLOCK        CLEAR     52  48  87 CALM      30.08F
THF RVR FALLS  CLEAR     54  52  94 CALM      30.10S FOG
BAUDETTE       CLEAR     52  50  93 CALM      30.09S
WASKISH        CLEAR     54  52  94 SE3       30.09S FOG
CROOKSTON      CLEAR     54  52  94 CALM      30.10R
STEPHEN NDAWN    N/A     54  54 100 N2          N/A
GREENBUSH NDAW   N/A     50  50 100 CALM        N/A
$$
  *****  WEATHER ACROSS CENTRAL AND WEST MINNESOTA  *****

CITY           SKY/WX    TMP DP  RH WIND       PRES   REMARKS
FOSSTON        FOG       46  45  93 CALM      30.10S VSB 3/4
BEMIDJI        CLEAR     48  46  93 CALM      30.10R
PARK RAPIDS    CLEAR     57  54  89 CALM      30.10S
ELBOW LAKE     FAIR      60  60  99 CALM      30.09S
WADENA         CLEAR     54  52  94 CALM      30.10R
DETROIT LAKES  PTCLDY    61  59  94 CALM      30.11S
MOORHEAD       MOCLDY    55  55 100 CALM      30.09S
FERGUS FALLS   CLEAR     61  61 100 E3        30.10S
MORRIS MN      CLEAR     57  57 100 CALM      30.08R
STAPLES        CLEAR     54  52  94 CALM      30.10R
$$
  *****  WEATHER ELSEWHERE ACROSS MINNESOTA  *****

CITY           SKY/WX    TMP DP  RH WIND       PRES   REMARKS
DULUTH         PTCLDY    52  49  89 N3        30.12S
INTRNTL FALLS  CLEAR     48  46  93 CALM      30.11S
ELY            PTCLDY    46  46 100 CALM      30.13S FOG
CLOQUET        CLEAR     48  46  93 CALM      30.12S
WHEATON        CLEAR     61  57  88 CALM      30.10R
BRAINERD       CLEAR     58  56  93 CALM      30.11S
HIBBING        PTCLDY    46  45  96 CALM      30.12F
ALEXANDRIA     CLEAR     57  55  93 N5        30.10S
SAINT CLOUD    CLEAR     54  53  97 CALM      30.08S
MINNEAPOLIS    CLOUDY    61  55  81 N6        30.06R
$$

  *****  WEATHER ACROSS SOUTH DAKOTA  *****

CITY           SKY/WX    TMP DP  RH WIND       PRES   REMARKS
SIOUX FALLS    PTCLDY    56  53  90 CALM      30.07R
BROOKINGS      CLEAR     52  51  97 N5        30.08S
WATERTOWN      CLEAR     60  57  89 N3        30.09R
HURON          PTCLDY    56  54  93 CALM      30.08S
SISSETON         N/A     57  56  96 CALM      30.07S
ABERDEEN       MOCLDY    63  60  90 CALM      30.09S
MITCHELL       MOCLDY    58  56  93 W3        30.08F
PIERRE         PTCLDY    61  60  97 SW5       30.07S
MOBRIDGE       CLOUDY    67  59  75 CALM      30.06F
RAPID CITY     FOG       54  54 100 CALM      30.13S VSB 1/2
$$

  *****  SOME WEATHER IN NEARBY STATES *****

CITY           SKY/WX    TMP DP  RH WIND       PRES   REMARKS
GLASGOW MT     PTCLDY    58  54  86 E7        30.06S
GREAT FALLS MT CLEAR     61  55  81 N8        30.14R
CHEYENNE WY    CLEAR     57  55  93 SW8       30.24F
SCOTTSBLUFF NE PTCLDY    59  56  89 CALM      30.16S
OMAHA NE       CLOUDY    67  63  87 N5        30.01R
DES MOINES IA  CLOUDY    66  62  87 N8        29.95F
DAVENPORT IA   CLOUDY    69  68  96 CALM      29.92S FOG
CHICAGO IL     MOCLDY    70  68  93 N7        29.91S
EAU CLAIRE WI  CLOUDY    61  56  83 NE5       30.04R
LA CROSSE WI   CLOUDY    65  57  75 N6        29.99S
$$

  *****  SOME NATIONAL WEATHER *****

CITY           SKY/WX    TMP DP  RH WIND       PRES   REMARKS
LA GUARDIA NY  LGT RAIN  72  69  90 NE15      29.83S
RALEIGH NC     CLEAR     76  70  82 SW8       29.87R
ATLANTA GA     MOCLDY    73  71  93 CALM      30.04R
NEW ORLEANS LA PTCLDY    80  75  84 CALM      30.01S
OKLAHOMA CITY  MOCLDY    73  71  93 S5        29.98R
ALBUQUERQUE NM CLEAR     74  46  36 E8        30.17S
SALT LAKE CITY CLEAR     75  44  33 S3        30.02S
LOS ANGELES CA PTCLDY    70  63  78 W5        29.82F
BOISE ID       CLEAR     69  46  43 SW3       29.97R
SEATTLE WA     CLEAR     67  61  81 N5        30.03S
$$

*** WEATHER ACROSS MANITOBA...SASKATCHEWAN AND ONTARIO ***
                ***ONTARIO***

CITY           SKY/WX    TMP DP  RH WIND       PRES   REMARKS
GERALDTON      PTCLDY    48  45  87 SW2       30.11R
THUNDER BAY    CLEAR     48  48 100 W5        30.12S
SIOUX LOOKOUT  PTCLDY    50  50 100 S3        30.11R
TORONTO        MOCLDY    68  57  68 N8        29.95R
BIG TROUT LK   CLOUDY    61  54  77 W6        30.03R
PICKLE LAKE    PTCLDY    52  50  93 S5        30.09
DRYDEN         CLEAR     57  57 100 S2        30.11S
KENORA         PTCLDY    57  54  88 NE3       30.11S
$$
                *** MANITOBA***

CITY           SKY/WX    TMP DP  RH WIND       PRES   REMARKS
BRANDON        PTCLDY    48  48 100 W5        30.09S
DAUPHIN        MOCLDY    59  55  88 W7        30.04S
ISLAND LAKE    PTCLDY    64  61  88 CALM      30.01S
PILOT MOUND      N/A     48  46  93 S3          N/A
THE PAS        MOCLDY    59  57  94 SE2       29.97S
THOMPSON       FOG       57  55  94 E6        30.00S VSB 1/4
WINNIPEG       PTCLDY    54  52  94 SE2       30.09S
LYNN LAKE      CLOUDY    61  59  94 MISG      29.97S
CHURCHILL      PTCLDY    50  48  93 NW6       30.07S
GILLAM         PTCLDY    50  48  93 VRB2      30.05F
$$
                ***SASKATCHEWAN***

CITY           SKY/WX    TMP DP  RH WIND       PRES   REMARKS
ESTEVAN        PTCLDY    54  54 100 S2        30.09F
KINDERSLEY     CLOUDY    61  59  94 VRB2      30.03F
LLOYDMINSTER   CLEAR     55  54  94 W8        30.01S
PRINCE ALBERT  CLOUDY    59  59 100 N2        29.98R
REGINA         PTCLDY    52  50  93 SE8       30.07S
YORKTON        CLEAR     57  54  88 S7        30.05F
N. BATTLEFORD  NOT AVBL
LA RONGE       LGT RAIN  63  61  94 VRB2      29.95F
SASKATOON      CLOUDY    63  61  94 SW8       30.02R
SWIFT CURRENT  CLOUDY    61  57  88 W9        30.06S
$$
NOTE: THESE ARE AUTOMATED STATIONS WITH LIMITED QUALITY CONTROL
      "FAIR" INDICATES FEW OR NO CLOUDS BELOW 12,000 FEET WITH NO
      SIGNIFICANT WEATHER AND/OR OBSTRUCTIONS TO VISIBILITY.
      SKY/WX - SKY CONDITION AND SIGNIFICANT WEATHER.
      TMP - AIR TEMPERATURE.    DP   - DEWPOINT TEMPERATURE.
      RH  - RELATIVE HUMIDITY.  PRES - PRESSURE.
      HX  - HEAT INDEX.         WCI  - WIND CHILL INDEX.
$




USA.gov is the U.S. government's official web portal to all federal, state and local government web resources and services.